| time (UTC) | temp F | wind direction | speed MPH | gust MPH | rain 1hr in | rain 24hr in | rain mn in | humidity % | barometer mb |
| 20260509055032 | 65 | 180 | 0.0 | 3.0 | 0.00 | 0.00 | 0.00 | 63 | 1026.7 |
| 20260509054545 | 65 | 196 | 0.0 | 3.0 | 0.00 | 0.00 | 0.00 | 63 | 1026.7 |
| 20260509054038 | 65 | 182 | 1.0 | 4.0 | 0.00 | 0.00 | 0.00 | 63 | 1026.7 |
| 20260509053535 | 65 | 171 | 1.0 | 6.0 | 0.00 | 0.00 | 0.00 | 63 | 1026.7 |
| 20260509053035 | 65 | 195 | 0.0 | 6.0 | 0.00 | 0.00 | 0.00 | 64 | 1026.8 |
| 20260509052533 | 65 | 186 | 1.0 | 5.0 | 0.00 | 0.00 | 0.00 | 63 | 1026.8 |
| 20260509052033 | 64 | 211 | 1.0 | 4.0 | 0.00 | 0.00 | 0.00 | 64 | 1026.8 |
| 20260509051533 | 64 | 150 | 0.0 | 5.0 | 0.00 | 0.00 | 0.00 | 64 | 1026.8 |
| 20260509051031 | 64 | 147 | 2.0 | 7.0 | 0.00 | 0.00 | 0.00 | 65 | 1026.8 |
| 20260509050533 | 64 | 200 | 1.0 | 3.0 | 0.00 | 0.00 | 0.00 | 65 | 1026.8 |
| 20260509050036 | 64 | 146 | 1.0 | 6.0 | 0.00 | 0.00 | 0.00 | 64 | 1026.8 |
| 20260509045532 | 64 | 175 | 3.0 | 6.0 | 0.00 | 0.00 | 0.00 | 65 | 1026.9 |
| 20260509045031 | 64 | 178 | 1.0 | 8.0 | 0.00 | 0.00 | 0.00 | 65 | 1026.9 |
| 20260509044529 | 64 | 173 | 2.0 | 8.0 | 0.00 | 0.00 | 0.00 | 64 | 1026.9 |
| 20260509044028 | 64 | 122 | 2.0 | 6.0 | 0.00 | 0.00 | 0.00 | 65 | 1026.9 |
| 20260509043528 | 64 | 96 | 0.0 | 6.0 | 0.00 | 0.00 | 0.00 | 65 | 1026.8 |
| 20260509043029 | 64 | 171 | 2.0 | 7.0 | 0.00 | 0.00 | 0.00 | 65 | 1026.9 |
| 20260509042528 | 64 | 150 | 3.0 | 7.0 | 0.00 | 0.00 | 0.00 | 65 | 1026.9 |
| 20260509042031 | 64 | 170 | 2.0 | 5.0 | 0.00 | 0.00 | 0.00 | 66 | 1026.9 |
| 20260509041539 | 64 | 96 | 1.0 | 5.0 | 0.00 | 0.00 | 0.00 | 66 | 1026.9 |
| 20260509041026 | 63 | 218 | 2.0 | 6.0 | 0.00 | 0.00 | 0.00 | 67 | 1026.9 |
| 20260509040525 | 63 | 202 | 2.0 | 5.0 | 0.00 | 0.00 | 0.00 | 66 | 1026.8 |
| 20260509040029 | 63 | 152 | 2.0 | 5.0 | 0.00 | 0.00 | 0.00 | 67 | 1026.9 |
| 20260509035527 | 63 | 128 | 2.0 | 7.0 | 0.00 | 0.00 | 0.00 | 67 | 1026.9 |
| 20260509035025 | 63 | 169 | 1.0 | 7.0 | 0.00 | 0.00 | 0.00 | 67 | 1026.8 |
| 20260509034526 | 63 | 198 | 1.0 | 7.0 | 0.00 | 0.00 | 0.00 | 67 | 1026.8 |
| 20260509034028 | 63 | 123 | 2.0 | 7.0 | 0.00 | 0.00 | 0.00 | 68 | 1027.0 |
| 20260509033528 | 63 | 178 | 0.0 | 6.0 | 0.00 | 0.00 | 0.00 | 67 | 1027.0 |
| 20260509033025 | 63 | 172 | 2.0 | 7.0 | 0.00 | 0.00 | 0.00 | 66 | 1027.1 |
| 20260509032524 | 63 | 155 | 2.0 | 7.0 | 0.00 | 0.00 | 0.00 | 67 | 1027.1 |
| 20260509032027 | 63 | 138 | 2.0 | 5.0 | 0.00 | 0.00 | 0.00 | 67 | 1027.1 |
| 20260509031532 | 63 | 146 | 2.0 | 9.0 | 0.00 | 0.00 | 0.00 | 66 | 1027.2 |
| 20260509031024 | 63 | 213 | 3.0 | 9.0 | 0.00 | 0.00 | 0.00 | 66 | 1027.2 |
| 20260509030524 | 63 | 159 | 1.0 | 4.0 | 0.00 | 0.00 | 0.00 | 67 | 1027.3 |
| 20260509030024 | 63 | 180 | 1.0 | 4.0 | 0.00 | 0.01 | 0.00 | 67 | 1027.4 |
| 20260509025522 | 63 | 210 | 1.0 | 7.0 | 0.00 | 0.01 | 0.00 | 68 | 1027.5 |
| 20260509025026 | 63 | 207 | 2.0 | 7.0 | 0.00 | 0.01 | 0.00 | 68 | 1027.5 |
| 20260509024520 | 62 | 225 | 0.0 | 5.0 | 0.00 | 0.01 | 0.00 | 68 | 1027.5 |
| 20260509024021 | 62 | 174 | 3.0 | 7.0 | 0.00 | 0.01 | 0.00 | 68 | 1027.6 |
| 20260509023520 | 62 | 175 | 2.0 | 9.0 | 0.00 | 0.01 | 0.00 | 68 | 1027.7 |
| 20260509023024 | 62 | 189 | 3.0 | 9.0 | 0.00 | 0.01 | 0.00 | 69 | 1027.8 |
| 20260509022520 | 62 | 137 | 4.0 | 9.0 | 0.00 | 0.01 | 0.00 | 68 | 1027.9 |
| 20260509022020 | 62 | 178 | 3.0 | 7.0 | 0.00 | 0.01 | 0.00 | 68 | 1027.9 |
| 20260509021519 | 62 | 178 | 3.0 | 7.0 | 0.00 | 0.01 | 0.00 | 69 | 1028.0 |
| 20260509021020 | 62 | 206 | 3.0 | 7.0 | 0.00 | 0.01 | 0.00 | 69 | 1028.1 |
| 20260509020520 | 62 | 186 | 1.0 | 8.0 | 0.00 | 0.01 | 0.00 | 70 | 1028.1 |
| 20260509020032 | 62 | 167 | 3.0 | 8.0 | 0.00 | 0.01 | 0.00 | 69 | 1028.1 |
| 20260509015518 | 62 | 207 | 3.0 | 8.0 | 0.00 | 0.01 | 0.00 | 70 | 1028.1 |
| 20260509015021 | 62 | 200 | 2.0 | 7.0 | 0.00 | 0.01 | 0.00 | 70 | 1028.1 |
| 20260509014519 | 62 | 181 | 4.0 | 8.0 | 0.00 | 0.01 | 0.00 | 71 | 1028.2 |
| 20260509014015 | 62 | 159 | 2.0 | 10.0 | 0.00 | 0.01 | 0.00 | 72 | 1028.1 |
| 20260509013514 | 62 | 194 | 3.0 | 8.0 | 0.00 | 0.01 | 0.00 | 72 | 1028.1 |
| 20260509013020 | 62 | 171 | 2.0 | 8.0 | 0.00 | 0.01 | 0.00 | 72 | 1028.1 |
| 20260509012510 | 61 | 153 | 1.0 | 6.0 | 0.00 | 0.01 | 0.00 | 73 | 1028.1 |
| 20260509012010 | 61 | 155 | 2.0 | 8.0 | 0.00 | 0.01 | 0.00 | 73 | 1028.2 |
| 20260509011510 | 61 | 149 | 3.0 | 8.0 | 0.00 | 0.01 | 0.00 | 73 | 1028.1 |
| 20260509011009 | 61 | 231 | 2.0 | 8.0 | 0.00 | 0.01 | 0.00 | 74 | 1028.1 |
| 20260509010508 | 61 | 190 | 2.0 | 7.0 | 0.00 | 0.01 | 0.00 | 74 | 1028.2 |
| 20260509010008 | 61 | 106 | 2.0 | 7.0 | 0.00 | 0.01 | 0.00 | 74 | 1028.2 |
| 20260509005507 | 61 | 193 | 3.0 | 7.0 | 0.00 | 0.01 | 0.00 | 75 | 1028.2 |
| 20260509005006 | 60 | 208 | 2.0 | 6.0 | 0.00 | 0.01 | 0.00 | 76 | 1028.2 |
| 20260509004510 | 60 | 155 | 2.0 | 6.0 | 0.00 | 0.01 | 0.00 | 77 | 1028.2 |
| 20260509004006 | 60 | 189 | 2.0 | 8.0 | 0.00 | 0.01 | 0.00 | 79 | 1028.2 |
| 20260509003502 | 59 | 132 | 3.0 | 8.0 | 0.00 | 0.01 | 0.00 | 80 | 1028.2 |
| 20260509003001 | 59 | 207 | 2.0 | 8.0 | 0.00 | 0.01 | 0.00 | 82 | 1028.1 |
| 20260509002603 | 58 | 168 | 2.0 | 8.0 | 0.00 | 0.01 | 0.00 | 83 | 1028.2 |
| 20260509002058 | 58 | 150 | 2.0 | 7.0 | 0.00 | 0.01 | 0.00 | 84 | 1028.2 |
| 20260509001557 | 57 | 188 | 2.0 | 6.0 | 0.00 | 0.01 | 0.00 | 85 | 1028.2 |
| 20260509001056 | 57 | 185 | 1.0 | 6.0 | 0.00 | 0.01 | 0.00 | 86 | 1028.2 |
| 20260509000600 | 57 | 197 | 3.0 | 8.0 | 0.00 | 0.01 | 0.00 | 87 | 1028.2 |
| 20260509000104 | 57 | 234 | 2.0 | 5.0 | 0.00 | 0.01 | 0.00 | 89 | 1028.2 |
| 20260508235554 | 57 | 220 | 3.0 | 6.0 | 0.00 | 0.01 | 0.00 | 90 | 1028.1 |
| 20260508235054 | 56 | 198 | 1.0 | 4.0 | 0.00 | 0.01 | 0.00 | 91 | 1028.1 |
| 20260508234554 | 56 | 205 | 1.0 | 6.0 | 0.00 | 0.01 | 0.00 | 92 | 1028.2 |
| 20260508234053 | 55 | 197 | 2.0 | 6.0 | 0.00 | 0.01 | 0.00 | 92 | 1028.2 |
| 20260508233549 | 55 | 217 | 1.0 | 4.0 | 0.00 | 0.01 | 0.00 | 93 | 1028.1 |
| 20260508233048 | 54 | 214 | 1.0 | 4.0 | 0.00 | 0.01 | 0.00 | 93 | 1028.1 |
| 20260508232546 | 54 | 233 | 1.0 | 4.0 | 0.00 | 0.01 | 0.00 | 93 | 1028.1 |
| 20260508232045 | 53 | 174 | 1.0 | 4.0 | 0.00 | 0.01 | 0.00 | 93 | 1028.1 |
| 20260508231543 | 53 | 273 | 0.0 | 3.0 | 0.00 | 0.01 | 0.00 | 93 | 1028.0 |
| 20260508231042 | 52 | 165 | 0.0 | 1.0 | 0.00 | 0.01 | 0.00 | 93 | 1028.0 |
| 20260508230540 | 51 | 167 | 0.0 | 1.0 | 0.00 | 0.01 | 0.00 | 93 | 1028.0 |
| 20260508230044 | 51 | 167 | 0.0 | 0.0 | 0.00 | 0.01 | 0.00 | 93 | 1028.0 |
| 20260508225538 | 50 | 167 | 0.0 | 0.0 | 0.00 | 0.01 | 0.00 | 92 | 1028.0 |
| 20260508225036 | 50 | 167 | 0.0 | 1.0 | 0.00 | 0.01 | 0.00 | 92 | 1028.0 |
| 20260508224536 | 50 | 166 | 0.0 | 1.0 | 0.00 | 0.01 | 0.00 | 92 | 1028.1 |
| 20260508224035 | 49 | 166 | 0.0 | 2.0 | 0.00 | 0.01 | 0.00 | 91 | 1028.1 |
| 20260508223536 | 49 | 166 | 0.0 | 2.0 | 0.00 | 0.01 | 0.00 | 91 | 1028.0 |
| 20260508223034 | 49 | 252 | 0.0 | 2.0 | 0.00 | 0.01 | 0.00 | 91 | 1027.9 |
| 20260508222533 | 49 | 252 | 0.0 | 2.0 | 0.00 | 0.01 | 0.00 | 91 | 1027.8 |
| 20260508222030 | 49 | 252 | 0.0 | 1.0 | 0.00 | 0.01 | 0.00 | 90 | 1027.7 |
| 20260508221530 | 48 | 252 | 0.0 | 1.0 | 0.00 | 0.01 | 0.00 | 90 | 1027.7 |
| 20260508221028 | 48 | 252 | 0.0 | 1.0 | 0.00 | 0.01 | 0.00 | 90 | 1027.5 |
| 20260508220529 | 48 | 252 | 0.0 | 0.0 | 0.00 | 0.01 | 0.00 | 90 | 1027.5 |
| 20260508220028 | 48 | 252 | 0.0 | 0.0 | 0.00 | 0.01 | 0.00 | 90 | 1027.5 |
| 20260508215531 | 48 | 252 | 0.0 | 0.0 | 0.00 | 0.01 | 0.00 | 90 | 1027.5 |
| 20260508215025 | 48 | 252 | 0.0 | 1.0 | 0.00 | 0.01 | 0.00 | 90 | 1027.5 |
| 20260508214528 | 48 | 252 | 0.0 | 1.0 | 0.00 | 0.01 | 0.00 | 90 | 1027.5 |
| 20260508214022 | 48 | 252 | 0.0 | 1.0 | 0.00 | 0.01 | 0.00 | 90 | 1027.4 |
| 20260508213521 | 48 | 252 | 0.0 | 1.0 | 0.00 | 0.01 | 0.00 | 90 | 1027.4 |
| 20260508213020 | 49 | 252 | 0.0 | 1.0 | 0.00 | 0.01 | 0.00 | 89 | 1027.4 |
| 20260508212519 | 49 | 252 | 0.0 | 1.0 | 0.00 | 0.01 | 0.00 | 89 | 1027.4 |
| 20260508212016 | 49 | 252 | 0.0 | 0.0 | 0.00 | 0.01 | 0.00 | 89 | 1027.5 |
| 20260508211532 | 49 | 252 | 0.0 | 0.0 | 0.00 | 0.01 | 0.00 | 89 | 1027.4 |
| 20260508211015 | 49 | 252 | 0.0 | 0.0 | 0.00 | 0.01 | 0.00 | 90 | 1027.4 |
| 20260508210514 | 49 | 252 | 0.0 | 0.0 | 0.00 | 0.01 | 0.00 | 90 | 1027.4 |
| 20260508210014 | 49 | 252 | 0.0 | 1.0 | 0.00 | 0.01 | 0.00 | 89 | 1027.3 |
| 20260508205513 | 49 | 252 | 0.0 | 1.0 | 0.00 | 0.01 | 0.00 | 89 | 1027.3 |
| 20260508205013 | 49 | 252 | 0.0 | 1.0 | 0.00 | 0.01 | 0.00 | 89 | 1027.3 |
| 20260508204513 | 49 | 252 | 0.0 | 1.0 | 0.00 | 0.01 | 0.00 | 89 | 1027.3 |
| 20260508204011 | 49 | 252 | 0.0 | 2.0 | 0.00 | 0.01 | 0.00 | 89 | 1027.2 |
| 20260508203511 | 49 | 252 | 0.0 | 2.0 | 0.00 | 0.01 | 0.00 | 89 | 1027.1 |
| 20260508203010 | 49 | 252 | 0.0 | 1.0 | 0.00 | 0.01 | 0.00 | 89 | 1027.1 |
| 20260508202511 | 49 | 252 | 0.0 | 1.0 | 0.00 | 0.01 | 0.00 | 89 | 1027.1 |
| 20260508202011 | 49 | 252 | 0.0 | 1.0 | 0.00 | 0.01 | 0.00 | 89 | 1027.1 |
| 20260508201510 | 49 | 252 | 0.0 | 1.0 | 0.00 | 0.01 | 0.00 | 89 | 1027.0 |
| 20260508201013 | 49 | 252 | 0.0 | 1.0 | 0.00 | 0.01 | 0.00 | 89 | 1027.0 |
| 20260508200509 | 49 | 252 | 0.0 | 1.0 | 0.00 | 0.01 | 0.00 | 89 | 1027.0 |
| 20260508200008 | 49 | 252 | 0.0 | 1.0 | 0.00 | 0.01 | 0.00 | 89 | 1026.9 |
| 20260508195510 | 49 | 252 | 0.0 | 0.0 | 0.00 | 0.01 | 0.00 | 88 | 1026.9 |
| 20260508195007 | 49 | 252 | 0.0 | 1.0 | 0.00 | 0.01 | 0.00 | 88 | 1026.9 |
| 20260508194514 | 49 | 252 | 0.0 | 1.0 | 0.00 | 0.01 | 0.00 | 88 | 1026.8 |
| 20260508194006 | 49 | 252 | 0.0 | 0.0 | 0.00 | 0.01 | 0.00 | 88 | 1026.7 |
| 20260508193503 | 50 | 252 | 0.0 | 0.0 | 0.00 | 0.01 | 0.00 | 88 | 1026.7 |
| 20260508193003 | 50 | 252 | 0.0 | 0.0 | 0.00 | 0.01 | 0.00 | 88 | 1026.7 |
| 20260508192503 | 50 | 252 | 0.0 | 0.0 | 0.00 | 0.01 | 0.00 | 88 | 1026.7 |
| 20260508192004 | 50 | 252 | 0.0 | 0.0 | 0.00 | 0.01 | 0.00 | 88 | 1026.6 |
| 20260508191504 | 50 | 252 | 0.0 | 0.0 | 0.00 | 0.01 | 0.00 | 88 | 1026.5 |
| 20260508191003 | 50 | 252 | 0.0 | 0.0 | 0.00 | 0.01 | 0.00 | 88 | 1026.6 |
| 20260508190504 | 50 | 252 | 0.0 | 0.0 | 0.00 | 0.01 | 0.00 | 88 | 1026.5 |
| 20260508190006 | 50 | 252 | 0.0 | 0.0 | 0.00 | 0.01 | 0.00 | 88 | 1026.6 |
| 20260508185501 | 49 | 252 | 0.0 | 0.0 | 0.00 | 0.01 | 0.00 | 88 | 1026.5 |
| 20260508185002 | 49 | 252 | 0.0 | 0.0 | 0.00 | 0.01 | 0.00 | 88 | 1026.6 |
| 20260508184506 | 49 | 252 | 0.0 | 0.0 | 0.00 | 0.01 | 0.00 | 88 | 1026.6 |
| 20260508184001 | 49 | 252 | 0.0 | 0.0 | 0.00 | 0.01 | 0.00 | 88 | 1026.5 |
| 20260508183501 | 49 | 252 | 0.0 | 0.0 | 0.00 | 0.01 | 0.00 | 88 | 1026.4 |
| 20260508183126 | 49 | 252 | 0.0 | 0.0 | 0.00 | 0.01 | 0.00 | 88 | 1026.4 |
| 20260508182600 | 49 | 252 | 0.0 | 0.0 | 0.00 | 0.01 | 0.00 | 88 | 1026.3 |
| 20260508182101 | 49 | 252 | 0.0 | 0.0 | 0.00 | 0.01 | 0.00 | 88 | 1026.3 |
| 20260508181607 | 49 | 252 | 0.0 | 0.0 | 0.00 | 0.01 | 0.00 | 88 | 1026.2 |
| 20260508181058 | 49 | 252 | 0.0 | 1.0 | 0.00 | 0.01 | 0.00 | 88 | 1026.1 |
| 20260508180558 | 49 | 252 | 0.0 | 0.0 | 0.00 | 0.01 | 0.00 | 88 | 1026.2 |
| 20260508180057 | 49 | 252 | 0.0 | 0.0 | 0.00 | 0.01 | 0.00 | 87 | 1026.1 |
| 20260508175556 | 49 | 252 | 0.0 | 0.0 | 0.00 | 0.01 | 0.00 | 87 | 1026.1 |
| 20260508175058 | 49 | 252 | 0.0 | 0.0 | 0.00 | 0.01 | 0.00 | 87 | 1026.2 |
| 20260508174603 | 49 | 252 | 0.0 | 0.0 | 0.00 | 0.01 | 0.00 | 87 | 1026.1 |
| 20260508174057 | 49 | 252 | 0.0 | 0.0 | 0.00 | 0.01 | 0.00 | 87 | 1026.2 |
| 20260508173556 | 49 | 252 | 0.0 | 0.0 | 0.00 | 0.01 | 0.00 | 87 | 1026.1 |
| 20260508173055 | 49 | 252 | 0.0 | 0.0 | 0.00 | 0.01 | 0.00 | 87 | 1026.1 |
| 20260508172554 | 49 | 252 | 0.0 | 0.0 | 0.00 | 0.01 | 0.00 | 87 | 1026.2 |
| 20260508172055 | 49 | 252 | 0.0 | 0.0 | 0.00 | 0.01 | 0.00 | 87 | 1026.1 |
| 20260508171556 | 49 | 252 | 0.0 | 0.0 | 0.00 | 0.01 | 0.00 | 87 | 1026.1 |
| 20260508171053 | 49 | 252 | 0.0 | 0.0 | 0.00 | 0.01 | 0.00 | 86 | 1026.2 |
| 20260508170552 | 49 | 252 | 0.0 | 0.0 | 0.00 | 0.01 | 0.00 | 86 | 1026.1 |
| 20260508170057 | 49 | 252 | 0.0 | 0.0 | 0.00 | 0.01 | 0.00 | 86 | 1026.0 |
| 20260508165552 | 49 | 252 | 0.0 | 0.0 | 0.00 | 0.01 | 0.00 | 86 | 1026.0 |
| 20260508165051 | 49 | 252 | 0.0 | 0.0 | 0.00 | 0.01 | 0.00 | 86 | 1025.9 |
| 20260508164550 | 50 | 252 | 0.0 | 1.0 | 0.00 | 0.01 | 0.00 | 86 | 1026.0 |
| 20260508164050 | 50 | 252 | 0.0 | 1.0 | 0.00 | 0.01 | 0.00 | 86 | 1025.9 |
| 20260508163550 | 50 | 252 | 0.0 | 1.0 | 0.00 | 0.01 | 0.00 | 86 | 1025.9 |
| 20260508163048 | 50 | 252 | 0.0 | 1.0 | 0.00 | 0.01 | 0.00 | 86 | 1025.9 |
| 20260508162548 | 50 | 252 | 0.0 | 1.0 | 0.00 | 0.01 | 0.00 | 86 | 1026.0 |
| 20260508162050 | 50 | 252 | 0.0 | 2.0 | 0.00 | 0.01 | 0.00 | 86 | 1025.9 |
| 20260508161547 | 50 | 252 | 0.0 | 2.0 | 0.00 | 0.01 | 0.00 | 86 | 1025.9 |
| 20260508161046 | 51 | 252 | 0.0 | 1.0 | 0.00 | 0.01 | 0.00 | 86 | 1025.9 |
| 20260508160545 | 51 | 252 | 0.0 | 1.0 | 0.00 | 0.01 | 0.00 | 86 | 1025.9 |
| 20260508160044 | 51 | 252 | 0.0 | 1.0 | 0.00 | 0.01 | 0.00 | 86 | 1025.9 |
| 20260508155543 | 51 | 252 | 0.0 | 2.0 | 0.00 | 0.01 | 0.00 | 86 | 1025.9 |
| 20260508155042 | 51 | 252 | 0.0 | 2.0 | 0.00 | 0.01 | 0.00 | 86 | 1025.8 |
| 20260508154604 | 51 | 252 | 0.0 | 2.0 | 0.00 | 0.01 | 0.00 | 86 | 1025.8 |
| 20260508154041 | 51 | 252 | 0.0 | 1.0 | 0.00 | 0.01 | 0.00 | 85 | 1025.8 |
| 20260508153541 | 52 | 252 | 0.0 | 0.0 | 0.00 | 0.01 | 0.00 | 85 | 1025.8 |
| 20260508153043 | 52 | 252 | 0.0 | 0.0 | 0.00 | 0.01 | 0.00 | 85 | 1025.8 |
| 20260508152540 | 52 | 252 | 0.0 | 1.0 | 0.00 | 0.01 | 0.00 | 85 | 1025.9 |
| 20260508152039 | 52 | 252 | 0.0 | 1.0 | 0.00 | 0.01 | 0.00 | 85 | 1025.9 |
| 20260508151540 | 52 | 252 | 0.0 | 1.0 | 0.00 | 0.01 | 0.00 | 85 | 1026.0 |
| 20260508151038 | 52 | 252 | 0.0 | 1.0 | 0.00 | 0.01 | 0.00 | 85 | 1025.9 |
| 20260508150538 | 52 | 252 | 0.0 | 1.0 | 0.00 | 0.01 | 0.00 | 85 | 1026.0 |
| 20260508150039 | 52 | 252 | 0.0 | 1.0 | 0.00 | 0.01 | 0.00 | 85 | 1025.9 |
| 20260508145537 | 53 | 252 | 0.0 | 3.0 | 0.00 | 0.01 | 0.00 | 85 | 1025.9 |
| 20260508145038 | 53 | 252 | 0.0 | 4.0 | 0.00 | 0.01 | 0.00 | 85 | 1025.9 |
| 20260508144532 | 53 | 254 | 0.0 | 4.0 | 0.00 | 0.01 | 0.00 | 85 | 1025.8 |
| 20260508144032 | 53 | 273 | 0.0 | 3.0 | 0.00 | 0.01 | 0.00 | 85 | 1025.9 |
| 20260508143534 | 53 | 273 | 0.0 | 3.0 | 0.00 | 0.01 | 0.00 | 85 | 1025.9 |
| 20260508143031 | 53 | 256 | 0.0 | 6.0 | 0.00 | 0.01 | 0.00 | 85 | 1025.9 |
| 20260508142530 | 53 | 230 | 1.0 | 6.0 | 0.00 | 0.01 | 0.00 | 85 | 1025.9 |
| 20260508142029 | 53 | 273 | 0.0 | 6.0 | 0.00 | 0.01 | 0.00 | 85 | 1025.8 |
| 20260508141533 | 53 | 244 | 0.0 | 6.0 | 0.00 | 0.01 | 0.00 | 85 | 1025.8 |
| 20260508141027 | 53 | 272 | 2.0 | 5.0 | 0.00 | 0.01 | 0.00 | 85 | 1025.9 |
| 20260508140528 | 53 | 255 | 1.0 | 4.0 | 0.00 | 0.01 | 0.00 | 85 | 1025.8 |
| 20260508140027 | 53 | 222 | 1.0 | 4.0 | 0.00 | 0.01 | 0.01 | 85 | 1025.9 |
| 20260508135525 | 53 | 271 | 2.0 | 5.0 | 0.00 | 0.01 | 0.01 | 85 | 1025.9 |
| 20260508135025 | 53 | 282 | 2.0 | 5.0 | 0.00 | 0.01 | 0.01 | 85 | 1025.9 |
| 20260508134529 | 53 | 271 | 0.0 | 6.0 | 0.00 | 0.01 | 0.01 | 84 | 1025.9 |
| 20260508134027 | 53 | 257 | 1.0 | 6.0 | 0.00 | 0.01 | 0.01 | 84 | 1025.9 |
| 20260508133529 | 53 | 265 | 1.0 | 6.0 | 0.00 | 0.01 | 0.01 | 84 | 1026.0 |
| 20260508133044 | 53 | 261 | 0.0 | 4.0 | 0.00 | 0.01 | 0.01 | 84 | 1026.0 |
| 20260508132527 | 53 | 275 | 0.0 | 5.0 | 0.00 | 0.01 | 0.01 | 84 | 1026.0 |
| 20260508132026 | 53 | 256 | 2.0 | 6.0 | 0.00 | 0.01 | 0.01 | 84 | 1026.0 |
| 20260508131527 | 53 | 254 | 2.0 | 7.0 | 0.00 | 0.01 | 0.01 | 85 | 1026.1 |
| 20260508131027 | 53 | 280 | 1.0 | 4.0 | 0.00 | 0.01 | 0.01 | 85 | 1026.1 |
| 20260508130526 | 53 | 269 | 1.0 | 4.0 | 0.00 | 0.01 | 0.01 | 85 | 1026.2 |
| 20260508130029 | 53 | 271 | 1.0 | 4.0 | 0.00 | 0.01 | 0.01 | 85 | 1026.2 |
| 20260508125527 | 53 | 248 | 1.0 | 4.0 | 0.00 | 0.01 | 0.01 | 84 | 1026.2 |
| 20260508125027 | 53 | 242 | 0.0 | 3.0 | 0.00 | 0.01 | 0.01 | 84 | 1026.3 |
| 20260508124526 | 53 | 277 | 0.0 | 4.0 | 0.00 | 0.01 | 0.01 | 84 | 1026.2 |
| 20260508124023 | 53 | 279 | 1.0 | 4.0 | 0.00 | 0.01 | 0.01 | 84 | 1026.2 |
| 20260508123524 | 53 | 240 | 0.0 | 2.0 | 0.00 | 0.01 | 0.01 | 84 | 1026.3 |
| 20260508123042 | 53 | 240 | 0.0 | 4.0 | 0.00 | 0.01 | 0.01 | 84 | 1026.3 |
| 20260508122523 | 53 | 240 | 1.0 | 4.0 | 0.00 | 0.01 | 0.01 | 84 | 1026.2 |
| 20260508122023 | 53 | 250 | 0.0 | 3.0 | 0.00 | 0.01 | 0.01 | 84 | 1026.2 |
| 20260508121528 | 53 | 215 | 0.0 | 3.0 | 0.00 | 0.01 | 0.01 | 84 | 1026.2 |
| 20260508121023 | 53 | 271 | 0.0 | 3.0 | 0.00 | 0.01 | 0.01 | 84 | 1026.2 |
| 20260508120522 | 53 | 259 | 0.0 | 2.0 | 0.00 | 0.01 | 0.01 | 84 | 1026.2 |
| 20260508120022 | 53 | 257 | 0.0 | 4.0 | 0.00 | 0.01 | 0.01 | 84 | 1026.3 |
| 20260508115526 | 53 | 202 | 0.0 | 6.0 | 0.00 | 0.01 | 0.01 | 83 | 1026.1 |
| 20260508115021 | 53 | 242 | 1.0 | 8.0 | 0.00 | 0.01 | 0.01 | 83 | 1026.1 |
| 20260508114525 | 53 | 259 | 2.0 | 8.0 | 0.00 | 0.01 | 0.01 | 83 | 1026.1 |
| 20260508114025 | 53 | 236 | 1.0 | 3.0 | 0.00 | 0.01 | 0.01 | 83 | 1026.0 |
| 20260508113525 | 53 | 245 | 0.0 | 4.0 | 0.00 | 0.01 | 0.01 | 83 | 1026.1 |
| 20260508113025 | 53 | 286 | 1.0 | 4.0 | 0.00 | 0.01 | 0.01 | 83 | 1026.0 |
| 20260508112524 | 53 | 244 | 1.0 | 3.0 | 0.00 | 0.01 | 0.01 | 82 | 1026.1 |
| 20260508112024 | 53 | 258 | 1.0 | 4.0 | 0.00 | 0.01 | 0.01 | 82 | 1026.0 |
| 20260508111533 | 53 | 259 | 1.0 | 4.0 | 0.00 | 0.01 | 0.01 | 82 | 1026.0 |
| 20260508111025 | 53 | 243 | 1.0 | 6.0 | 0.00 | 0.01 | 0.01 | 82 | 1026.0 |
| 20260508110525 | 53 | 257 | 1.0 | 6.0 | 0.00 | 0.01 | 0.01 | 82 | 1026.1 |
| 20260508110026 | 54 | 261 | 0.0 | 4.0 | 0.00 | 0.01 | 0.01 | 82 | 1026.1 |
| 20260508105524 | 54 | 272 | 2.0 | 5.0 | 0.00 | 0.01 | 0.01 | 82 | 1026.1 |
| 20260508105023 | 54 | 204 | 2.0 | 7.0 | 0.00 | 0.01 | 0.01 | 82 | 1026.1 |
| 20260508104521 | 54 | 228 | 2.0 | 7.0 | 0.00 | 0.01 | 0.01 | 81 | 1026.0 |
| 20260508104020 | 54 | 254 | 1.0 | 4.0 | 0.00 | 0.01 | 0.01 | 81 | 1026.0 |
| 20260508103519 | 54 | 241 | 1.0 | 8.0 | 0.00 | 0.01 | 0.01 | 81 | 1025.9 |
| 20260508103019 | 54 | 238 | 3.0 | 8.0 | 0.00 | 0.01 | 0.01 | 81 | 1025.8 |
| 20260508102518 | 54 | 215 | 2.0 | 6.0 | 0.00 | 0.01 | 0.01 | 81 | 1025.7 |
| 20260508102018 | 54 | 266 | 2.0 | 7.0 | 0.00 | 0.01 | 0.01 | 81 | 1025.7 |
| 20260508101518 | 55 | 258 | 1.0 | 5.0 | 0.00 | 0.01 | 0.01 | 81 | 1025.7 |
| 20260508101018 | 55 | 273 | 2.0 | 5.0 | 0.00 | 0.01 | 0.01 | 80 | 1025.7 |
| 20260508100519 | 55 | 259 | 1.0 | 7.0 | 0.00 | 0.01 | 0.01 | 80 | 1025.6 |
| 20260508100017 | 55 | 281 | 1.0 | 7.0 | 0.00 | 0.01 | 0.01 | 80 | 1025.6 |
| 20260508095517 | 55 | 240 | 2.0 | 7.0 | 0.00 | 0.01 | 0.01 | 80 | 1025.5 |
| 20260508095016 | 55 | 237 | 1.0 | 4.0 | 0.00 | 0.01 | 0.01 | 80 | 1025.5 |
| 20260508094514 | 55 | 255 | 1.0 | 6.0 | 0.00 | 0.01 | 0.01 | 80 | 1025.5 |
| 20260508094014 | 55 | 265 | 1.0 | 8.0 | 0.00 | 0.01 | 0.01 | 80 | 1025.6 |
| 20260508093514 | 56 | 220 | 1.0 | 8.0 | 0.00 | 0.01 | 0.01 | 80 | 1025.5 |
| 20260508093017 | 56 | 233 | 2.0 | 9.0 | 0.00 | 0.01 | 0.01 | 79 | 1025.4 |
| 20260508092513 | 56 | 277 | 2.0 | 9.0 | 0.00 | 0.01 | 0.01 | 80 | 1025.5 |
| 20260508092012 | 56 | 193 | 1.0 | 7.0 | 0.00 | 0.01 | 0.01 | 79 | 1025.5 |
| 20260508091513 | 56 | 195 | 3.0 | 10.0 | 0.00 | 0.01 | 0.01 | 79 | 1025.4 |
| 20260508091017 | 56 | 258 | 4.0 | 10.0 | 0.00 | 0.01 | 0.01 | 79 | 1025.2 |
| 20260508090512 | 56 | 225 | 1.0 | 8.0 | 0.00 | 0.01 | 0.01 | 78 | 1025.2 |
| 20260508090023 | 56 | 193 | 4.0 | 8.0 | 0.00 | 0.01 | 0.01 | 78 | 1025.3 |
| 20260508085510 | 56 | 246 | 2.0 | 6.0 | 0.00 | 0.01 | 0.01 | 77 | 1025.1 |
| 20260508085010 | 56 | 226 | 2.0 | 11.0 | 0.00 | 0.01 | 0.01 | 77 | 1024.9 |
| 20260508084509 | 56 | 215 | 4.0 | 11.0 | 0.00 | 0.01 | 0.01 | 77 | 1024.9 |
| 20260508084011 | 56 | 194 | 2.0 | 9.0 | 0.00 | 0.01 | 0.01 | 76 | 1024.8 |
| 20260508083509 | 56 | 274 | 1.0 | 7.0 | 0.00 | 0.01 | 0.01 | 76 | 1024.8 |
| 20260508083009 | 56 | 229 | 1.0 | 7.0 | 0.00 | 0.01 | 0.01 | 76 | 1024.8 |
| 20260508082508 | 57 | 253 | 0.0 | 3.0 | 0.00 | 0.01 | 0.01 | 75 | 1024.8 |
| 20260508082008 | 57 | 198 | 1.0 | 3.0 | 0.00 | 0.01 | 0.01 | 75 | 1024.8 |
| 20260508081508 | 57 | 213 | 0.0 | 4.0 | 0.00 | 0.01 | 0.01 | 74 | 1024.7 |
| 20260508081006 | 57 | 205 | 0.0 | 4.0 | 0.00 | 0.01 | 0.01 | 74 | 1024.7 |
| 20260508080508 | 57 | 261 | 0.0 | 2.0 | 0.00 | 0.01 | 0.01 | 74 | 1024.6 |
| 20260508080007 | 57 | 261 | 1.0 | 3.0 | 0.00 | 0.01 | 0.01 | 74 | 1024.6 |
| 20260508075507 | 57 | 263 | 0.0 | 6.0 | 0.00 | 0.01 | 0.01 | 74 | 1024.6 |
| 20260508075006 | 57 | 221 | 1.0 | 6.0 | 0.00 | 0.01 | 0.01 | 74 | 1024.4 |
| 20260508074506 | 58 | 217 | 1.0 | 6.0 | 0.00 | 0.01 | 0.01 | 74 | 1024.4 |
| 20260508074006 | 58 | 211 | 1.0 | 7.0 | 0.00 | 0.01 | 0.01 | 73 | 1024.3 |
| 20260508073504 | 58 | 223 | 2.0 | 7.0 | 0.00 | 0.01 | 0.01 | 73 | 1024.2 |
| 20260508073113 | 58 | 244 | 3.0 | 6.0 | 0.00 | 0.01 | 0.01 | 72 | 1024.1 |
| 20260508072503 | 58 | 186 | 1.0 | 7.0 | 0.00 | 0.01 | 0.01 | 72 | 1024.1 |
| 20260508072004 | 58 | 232 | 2.0 | 5.0 | 0.00 | 0.01 | 0.01 | 71 | 1024.0 |
| 20260508071504 | 58 | 206 | 1.0 | 7.0 | 0.00 | 0.01 | 0.01 | 71 | 1023.9 |
| 20260508071003 | 59 | 243 | 2.0 | 7.0 | 0.00 | 0.01 | 0.01 | 71 | 1023.8 |
| 20260508070505 | 59 | 201 | 2.0 | 10.0 | 0.00 | 0.01 | 0.01 | 70 | 1023.7 |
| 20260508070004 | 59 | 195 | 4.0 | 10.0 | 0.00 | 0.01 | 0.01 | 70 | 1023.7 |
| 20260508065503 | 59 | 209 | 3.0 | 9.0 | 0.00 | 0.01 | 0.01 | 70 | 1023.6 |
| 20260508065006 | 59 | 184 | 5.0 | 9.0 | 0.00 | 0.01 | 0.01 | 69 | 1023.6 |
| 20260508064536 | 60 | 193 | 1.0 | 4.0 | 0.00 | 0.01 | 0.01 | 69 | 1023.6 |
| 20260508064032 | 60 | 231 | 0.0 | 7.0 | 0.00 | 0.01 | 0.01 | 69 | 1023.6 |
| 20260508063532 | 60 | 254 | 1.0 | 9.0 | 0.00 | 0.01 | 0.01 | 69 | 1023.6 |
| 20260508063036 | 61 | 224 | 2.0 | 9.0 | 0.00 | 0.01 | 0.01 | 68 | 1023.6 |
| 20260508062532 | 61 | 211 | 4.0 | 12.0 | 0.00 | 0.01 | 0.01 | 68 | 1023.6 |
| 20260508062032 | 61 | 192 | 3.0 | 12.0 | 0.00 | 0.01 | 0.01 | 68 | 1023.5 |
| 20260508061539 | 61 | 205 | 3.0 | 8.0 | 0.00 | 0.01 | 0.01 | 67 | 1023.5 |
| 20260508061032 | 61 | 209 | 2.0 | 9.0 | 0.00 | 0.01 | 0.01 | 68 | 1023.4 |
| 20260508060536 | 61 | 280 | 4.0 | 9.0 | 0.00 | 0.01 | 0.01 | 68 | 1023.4 |
| 20260508060049 | 62 | 278 | 4.0 | 10.0 | 0.00 | 0.02 | 0.01 | 68 | 1023.4 |
| 20260508055531 | 62 | 272 | 2.0 | 10.0 | 0.00 | 0.02 | 0.01 | 67 | 1023.4 |